Regional Weather Roundup
Issued by NWS Boston, MA

Home | Current Version | Previous Version | Text Only | Print | Product List | Glossary On
Versions: 1 2 3 4 5 6 7 8 9 10 11 12 13 14 15 16 17 18 19 20 21 22 23 24 25 26 27
000
ASUS41 KBOX 261210
RWRBOX

REGIONAL WEATHER ROUNDUP
NATIONAL WEATHER SERVICE TAUNTON MA
800 AM EDT MON JUN 26 2017

NOTE:  "FAIR" INDICATES FEW OR NO CLOUDS BELOW 12,000 FEET WITH NO
SIGNIFICANT WEATHER AND/OR OBSTRUCTIONS TO VISIBILITY.

MAZALL-261300-
EASTERN MASSACHUSETTS

CITY           SKY/WX    TMP DP  RH WIND       PRES   REMARKS
BOSTON         SUNNY     67  52  58 W8        29.98R
6HR MIN TEMP:  63; 6HR MAX TEMP:  67;

BEVERLY        SUNNY     64  56  75 W10       29.96R
LAWRENCE       SUNNY     66  55  67 W8        29.99R
BEDFORD        SUNNY     63  54  72 W7        29.97R
BLUE HILL        N/A     64  52  64 W10       29.98S
NORWOOD        SUNNY     67  54  63 W8        29.98R
MARSHFIELD     SUNNY     68  54  60 W6G12     29.97F
PLYMOUTH       SUNNY     66  51  58 W8        29.99R
TAUNTON        SUNNY     66  53  63 VRB3      29.99R
NEW BEDFORD    SUNNY     68  52  56 VRB5      29.98S
$$

MAZALL-261300-
CAPE COD AND THE ISLANDS

CITY           SKY/WX    TMP DP  RH WIND       PRES   REMARKS
FALMOUTH       SUNNY     68  54  60 NW6       30.00R
HYANNIS        SUNNY     69  50  50 NW9       29.97R
CHATHAM        SUNNY     69  54  58 NW8       29.99R
PROVINCETOWN   SUNNY     65  56  72 W13       29.98R
NANTUCKET      SUNNY     69  57  65 NW12      29.99R
MARTHAS VNYRD  SUNNY     70  56  61 NW9       29.99R
$$

MAZALL-261300-
CENTRAL AND WESTERN MASSACHUSETTS

CITY           SKY/WX    TMP DP  RH WIND       PRES   REMARKS
WORCESTER      SUNNY     59  51  75 W9        30.00R
6HR MIN TEMP:  54; 6HR MAX TEMP:  59;

FITCHBURG      SUNNY     65  55  70 NW6       29.98S
ORANGE         SUNNY     60  54  80 CALM      30.00R
SPRINGFIELD    MOSUNNY   63  53  71 W6        29.99R
WESTFIELD      SUNNY     64  54  69 SW5       30.00S
NORTH ADAMS    SUNNY     60  53  77 VRB6      30.00S
PITTSFIELD     SUNNY     59  52  77 W6        30.01R
$$

RIZALL-261300-
RHODE ISLAND

CITY           SKY/WX    TMP DP  RH WIND       PRES   REMARKS
PROVIDENCE     MOSUNNY   67  53  61 W9        30.00S
6HR MIN TEMP:  60; 6HR MAX TEMP:  67;

NEWPORT        SUNNY     66  55  67 NW6       30.00R
BLOCK ISLAND   SUNNY     66  56  70 W7        30.02R
WESTERLY       SUNNY     67  55  65 NW5       30.02R
$$

CTZALL-261300-
CONNECTICUT

CITY           SKY/WX    TMP DP  RH WIND       PRES   REMARKS
BRADLEY INTL   SUNNY     65  53  65 SW6       30.01R
6HR MIN TEMP:  53; 6HR MAX TEMP:  65;

HARTFORD       SUNNY     65  54  67 VRB3      30.01R
BRIDGEPORT     NOT AVBL
GROTON         SUNNY     68  54  60 W7        30.00S
NEW HAVEN      SUNNY     66  55  68 NW5       30.02R
CHESTER        FAIR      64  54  68 W6        30.02S
MERIDEN        SUNNY     64  55  72 CALM      30.02S
WILLIMANTIC    SUNNY     66  55  67 VRB3      30.02R
OXFORD         SUNNY     63  52  67 CALM      30.03S
$$

MEZ002-015-021-024-NHZ003-005-008-011-012-014-VTZ005-008-261300-
NORTHERN NEW ENGLAND

CITY           SKY/WX    TMP DP  RH WIND       PRES   REMARKS
PORTLAND ME    SUNNY     66  50  56 W12       29.92R
6HR MIN TEMP:  58; 6HR MAX TEMP:  66;

BANGOR ME      PTSUNNY   63  55  75 VRB5      29.89R
CONCORD NH     SUNNY     65  50  58 W7        29.96R
MANCHESTER NH  SUNNY     66  47  50 W9        29.95R
NASHUA NH      SUNNY     64  54  69 W6        29.98R
PORTSMOUTH NH  SUNNY     66  50  57 W13       29.93S
JAFFREY NH     SUNNY     61  51  70 CALM      30.00R
KEENE NH       SUNNY     63  51  65 VRB6      29.99R
BURLINGTON VT  PTSUNNY   61  51  70 S3        29.96R
MT. WASHINGTON FOG       36  36 100 W45         N/A  VSB 0   WCI  20
$$

NYZ052-076-261300-
EASTERN NEW YORK

CITY           SKY/WX    TMP DP  RH WIND       PRES   REMARKS
ALBANY         MOSUNNY   61  54  77 CALM      30.01R
6HR MIN TEMP:  53; 6HR MAX TEMP:  61;

NEW YORK CITY  SUNNY     69  53  56 NW9       30.03R
6HR MIN TEMP:  67; 6HR MAX TEMP:  70;

$$

ANZALL-261300-
MARINE OBSERVATIONS

STATION/POSITION TIME  TEMP    WIND        PRES    VSBY  WAVE
                       AIR SEA DIR/SP/G                  HT/PER
                 (UTC) (F)     (DEG/KT/KT) (MB)    (MI)  (FT/S)
BOSTON BUOY      1150   60 59  240/ 10/ 12 1014.8R         1/ 8
BUZZARDS BAY     1100   67     310/ 11/ 12 1015.8R
NANTUCKET SOUND  1150      63              1015.1R         1/ 2
MASS BAY-STELLWA 1104   61 57  240/ 10/ 12 1014.0R         2/ 8
ISLE OF SHOALS   1100   60     280/ 15/ 16 1013.1R
S OF BLOCK IS    1155      65                N/A           3/ 8
$$

......................KEY.........................
  SKY/WX - SKY CONDITION/PRESENT WEATHER
  TMP    - TEMPERATURE IN FAHRENHEIT
  DWPT   - DEWPOINT IN FAHRENHEIT
  RH     - RELATIVE HUMIDITY IN PERCENT
  WIND   - DIRECTION AND SPEED IN MPH
  PRES   - MEAN SEA LEVEL PRESSURE IN INCHES OF HG
  WCI    - WIND CHILL INDEX
  VSB    - VISIBILITY IN MILES
  HX     - HEAT INDEX
  TC     - TEMPERATURE IN CELSIUS
  VRB    - VARIABLE WIND DIRECTION
  N/A    - NOT AVAILABLE




USA.gov is the U.S. government's official web portal to all federal, state and local government web resources and services.